sat.trackr.live / text

‹ back to catalog

STARLINK-5864

NORAD 55940 · 2023-037AC

PAYLOAD ACTIVE UNKNOWN

§ Identity

Operator
Country
US
Launch date
2023-03-17
Launch site
AFWTR
Launch vehicle
Mass (kg)
RCS (m²)

Purposes: comms

External: N2YO · Heavens-Above · Gunter

§ Orbital elements

Epoch: 2026-09-20T22:00:03.000096Z

Period
95.66 min
Inclination
70.0012°
Eccentricity
0.0002984
Mean motion
15.05289986 rev/d
Perigee alt
548.5 km
Apogee alt
552.7 km
Semi-major
6,928.8 km
B*
8.4517e-4
RAAN
152.1081°
Arg perigee
304.3508°
Mean anomaly
151.1981°
Rev number
576

§ Raw data

STARLINK-58641 55940U 23037AC  26263.91670139  .00012033  00000+0  84517-3 0  99992 55940  70.0012 152.1081 0002984 304.3508 151.1981 15.05289986  5766

JSON: /api/v1/satellites/55940 · /tle

For live sub-satellite position, see the globe view (requires WebGL).

§ Visibility from observer

Set your observer location to see the next 7 days of passes ≥ 10°. The values pass through the URL so the page stays shareable.

No JS? Fill the form by hand. The geolocation button needs JavaScript.